Time,TemperatureF,DewpointF,PressureIn,WindDirection,WindDirectionDegrees,WindSpeedMPH,WindSpeedGustMPH,Humidity,HourlyPrecipIn,Conditions,Clouds,dailyrainin,SoftwareType,DateUTC
2013-06-01 00:01:00,67.9,67.3,29.75,SSW,212,4.0,11.0,98,0.00,,,0.21,WUHU216DAVISVP2,2013-06-01 04:01:00,
2013-06-01 00:06:00,68.1,67.5,29.75,SW,223,3.0,13.0,98,0.00,,,0.00,WUHU216DAVISVP2,2013-06-01 04:06:00,
2013-06-01 00:11:00,68.2,67.6,29.75,South,184,4.0,13.0,98,0.00,,,0.00,WUHU216DAVISVP2,2013-06-01 04:11:00,
2013-06-01 00:16:00,68.3,67.7,29.74,SSW,212,6.0,13.0,98,0.00,,,0.00,WUHU216DAVISVP2,2013-06-01 04:16:00,
2013-06-01 00:21:00,68.4,67.8,29.74,SW,215,4.0,15.0,98,0.00,,,0.00,WUHU216DAVISVP2,2013-06-01 04:21:00,
2013-06-01 00:26:00,68.5,67.6,29.75,WSW,238,2.0,15.0,97,0.00,,,0.00,WUHU216DAVISVP2,2013-06-01 04:26:00,
2013-06-01 00:31:00,68.5,67.6,29.75,SW,222,8.0,14.0,97,0.00,,,0.00,WUHU216DAVISVP2,2013-06-01 04:31:00,
2013-06-01 00:36:00,68.6,67.7,29.75,WSW,245,6.0,14.0,97,0.00,,,0.00,WUHU216DAVISVP2,2013-06-01 04:36:00,
2013-06-01 00:41:00,68.6,67.7,29.75,South,188,3.0,13.0,97,0.00,,,0.00,WUHU216DAVISVP2,2013-06-01 04:41:00,
2013-06-01 00:46:00,68.7,67.8,29.75,SW,215,1.0,14.0,97,0.00,,,0.00,WUHU216DAVISVP2,2013-06-01 04:46:00,
2013-06-01 00:51:00,68.7,67.8,29.74,West,276,1.0,14.0,97,0.00,,,0.00,WUHU216DAVISVP2,2013-06-01 04:51:00,
2013-06-01 00:56:00,68.8,67.9,29.74,WSW,253,2.0,14.0,97,0.00,,,0.00,WUHU216DAVISVP2,2013-06-01 04:56:00,
2013-06-01 01:01:00,68.8,67.9,29.73,South,177,2.0,11.0,97,0.01,,,0.01,WUHU216DAVISVP2,2013-06-01 05:01:00,
2013-06-01 01:06:00,68.7,67.8,29.73,South,185,5.0,12.0,97,0.01,,,0.01,WUHU216DAVISVP2,2013-06-01 05:06:00,
2013-06-01 01:11:00,68.7,67.8,29.72,South,187,2.0,14.0,97,0.01,,,0.01,WUHU216DAVISVP2,2013-06-01 05:11:00,
2013-06-01 01:16:00,68.7,67.8,29.71,WSW,243,3.0,14.0,97,0.01,,,0.01,WUHU216DAVISVP2,2013-06-01 05:16:00,
2013-06-01 01:21:00,68.7,67.5,29.71,WSW,238,4.0,14.0,96,0.01,,,0.01,WUHU216DAVISVP2,2013-06-01 05:21:00,
2013-06-01 01:26:00,68.7,67.5,29.70,SSW,206,15.0,16.0,96,0.01,,,0.01,WUHU216DAVISVP2,2013-06-01 05:26:00,
2013-06-01 01:31:00,68.6,67.4,29.70,SSW,205,9.0,16.0,96,0.01,,,0.01,WUHU216DAVISVP2,2013-06-01 05:31:00,
2013-06-01 01:36:00,68.6,67.4,29.69,SSW,210,7.0,19.0,96,0.01,,,0.01,WUHU216DAVISVP2,2013-06-01 05:36:00,
2013-06-01 01:41:00,68.6,67.4,29.69,SW,231,14.0,19.0,96,0.01,,,0.01,WUHU216DAVISVP2,2013-06-01 05:41:00,
2013-06-01 01:46:00,68.5,67.3,29.68,WSW,249,5.0,19.0,96,0.01,,,0.01,WUHU216DAVISVP2,2013-06-01 05:46:00,
2013-06-01 01:51:00,68.3,67.1,29.68,SSW,194,4.0,19.0,96,0.01,,,0.01,WUHU216DAVISVP2,2013-06-01 05:51:00,
2013-06-01 01:56:00,68.2,66.7,29.68,SW,228,3.0,17.0,95,0.01,,,0.01,WUHU216DAVISVP2,2013-06-01 05:56:00,
2013-06-01 02:01:00,68.1,66.6,29.68,SW,229,6.0,17.0,95,0.00,,,0.01,WUHU216DAVISVP2,2013-06-01 06:01:00,
2013-06-01 02:06:00,68.0,66.5,29.68,South,174,5.0,13.0,95,0.00,,,0.01,WUHU216DAVISVP2,2013-06-01 06:06:00,
2013-06-01 02:11:00,68.0,66.5,29.68,West,274,1.0,13.0,95,0.00,,,0.01,WUHU216DAVISVP2,2013-06-01 06:11:00,
2013-06-01 02:16:00,67.9,66.4,29.68,SW,221,3.0,13.0,95,0.00,,,0.01,WUHU216DAVISVP2,2013-06-01 06:16:00,
2013-06-01 02:21:00,67.9,66.4,29.69,WNW,285,1.0,13.0,95,0.00,,,0.01,WUHU216DAVISVP2,2013-06-01 06:21:00,
2013-06-01 02:26:00,67.8,66.3,29.70,West,280,3.0,10.0,95,0.00,,,0.01,WUHU216DAVISVP2,2013-06-01 06:26:00,
2013-06-01 02:31:00,67.7,66.2,29.70,SW,234,2.0,10.0,95,0.00,,,0.01,WUHU216DAVISVP2,2013-06-01 06:31:00,
2013-06-01 02:36:00,67.7,66.5,29.70,SW,229,1.0,10.0,96,0.00,,,0.01,WUHU216DAVISVP2,2013-06-01 06:36:00,
2013-06-01 02:41:00,67.5,66.3,29.71,NW,305,0.0,9.0,96,0.00,,,0.01,WUHU216DAVISVP2,2013-06-01 06:41:00,
2013-06-01 02:46:00,67.3,66.1,29.71,NW,306,0.0,8.0,96,0.00,,,0.01,WUHU216DAVISVP2,2013-06-01 06:46:00,
2013-06-01 02:51:00,67.2,66.0,29.70,SSW,200,0.0,2.0,96,0.00,,,0.01,WUHU216DAVISVP2,2013-06-01 06:51:00,
2013-06-01 02:56:00,67.0,65.8,29.70,SW,219,1.0,2.0,96,0.00,,,0.01,WUHU216DAVISVP2,2013-06-01 06:56:00,
2013-06-01 03:01:00,66.9,65.7,29.69,SSW,206,0.0,4.0,96,0.01,,,0.02,WUHU216DAVISVP2,2013-06-01 07:01:00,
2013-06-01 03:06:00,66.9,65.7,29.69,West,269,1.0,7.0,96,0.01,,,0.02,WUHU216DAVISVP2,2013-06-01 07:06:00,
2013-06-01 03:11:00,66.8,65.6,29.68,SW,219,1.0,7.0,96,0.01,,,0.02,WUHU216DAVISVP2,2013-06-01 07:11:00,
2013-06-01 03:16:00,66.6,65.1,29.68,SSW,203,4.0,7.0,95,0.01,,,0.02,WUHU216DAVISVP2,2013-06-01 07:16:00,
2013-06-01 03:21:00,66.4,64.9,29.70,West,262,3.0,7.0,95,0.02,,,0.03,WUHU216DAVISVP2,2013-06-01 07:21:00,
2013-06-01 03:26:00,66.1,64.6,29.70,SSW,207,2.0,6.0,95,0.02,,,0.03,WUHU216DAVISVP2,2013-06-01 07:26:00,
2013-06-01 03:31:00,65.9,64.4,29.69,SSW,210,3.0,11.0,95,0.02,,,0.03,WUHU216DAVISVP2,2013-06-01 07:31:00,
2013-06-01 03:36:00,65.8,63.7,29.69,West,269,4.0,11.0,93,0.02,,,0.03,WUHU216DAVISVP2,2013-06-01 07:36:00,
2013-06-01 03:41:00,65.6,63.8,29.70,SSW,197,3.0,11.0,94,0.02,,,0.03,WUHU216DAVISVP2,2013-06-01 07:41:00,
2013-06-01 03:46:00,65.4,63.3,29.72,SW,219,7.0,11.0,93,0.02,,,0.03,WUHU216DAVISVP2,2013-06-01 07:46:00,
2013-06-01 03:51:00,65.2,63.1,29.70,West,274,5.0,11.0,93,0.02,,,0.03,WUHU216DAVISVP2,2013-06-01 07:51:00,
2013-06-01 03:56:00,64.9,63.1,29.70,SW,234,5.0,9.0,94,0.02,,,0.03,WUHU216DAVISVP2,2013-06-01 07:56:00,
2013-06-01 04:01:00,64.7,62.9,29.69,SSW,207,2.0,9.0,94,0.01,,,0.03,WUHU216DAVISVP2,2013-06-01 08:01:00,
2013-06-01 04:06:00,64.6,62.8,29.70,SW,228,2.0,10.0,94,0.01,,,0.03,WUHU216DAVISVP2,2013-06-01 08:06:00,
2013-06-01 04:11:00,64.5,63.0,29.71,SW,236,2.0,10.0,95,0.01,,,0.03,WUHU216DAVISVP2,2013-06-01 08:11:00,
2013-06-01 04:16:00,64.4,62.9,29.71,WSW,256,3.0,9.0,95,0.01,,,0.03,WUHU216DAVISVP2,2013-06-01 08:16:00,
2013-06-01 04:21:00,64.5,63.0,29.71,SW,224,3.0,9.0,95,0.00,,,0.03,WUHU216DAVISVP2,2013-06-01 08:21:00,
2013-06-01 04:26:00,64.5,62.7,29.71,West,278,2.0,7.0,94,0.00,,,0.03,WUHU216DAVISVP2,2013-06-01 08:26:00,
2013-06-01 04:31:00,64.6,62.8,29.71,SW,224,5.0,8.0,94,0.00,,,0.03,WUHU216DAVISVP2,2013-06-01 08:31:00,
2013-06-01 04:36:00,64.4,62.6,29.73,WSW,249,5.0,8.0,94,0.01,,,0.04,WUHU216DAVISVP2,2013-06-01 08:36:00,
2013-06-01 04:41:00,64.3,62.8,29.73,SSW,203,2.0,8.0,95,0.01,,,0.04,WUHU216DAVISVP2,2013-06-01 08:41:00,
2013-06-01 04:46:00,64.1,62.6,29.73,SSW,206,2.0,8.0,95,0.01,,,0.04,WUHU216DAVISVP2,2013-06-01 08:46:00,
2013-06-01 04:51:00,63.9,62.4,29.74,SSW,200,3.0,8.0,95,0.03,,,0.06,WUHU216DAVISVP2,2013-06-01 08:51:00,
2013-06-01 04:56:00,63.7,62.5,29.74,WSW,255,5.0,8.0,96,0.04,,,0.07,WUHU216DAVISVP2,2013-06-01 08:56:00,
2013-06-01 05:01:00,63.6,62.4,29.74,SW,231,2.0,9.0,96,0.06,,,0.09,WUHU216DAVISVP2,2013-06-01 09:01:00,
2013-06-01 05:06:00,63.5,62.3,29.74,WSW,256,4.0,9.0,96,0.08,,,0.11,WUHU216DAVISVP2,2013-06-01 09:06:00,
2013-06-01 05:11:00,63.5,62.3,29.73,WSW,256,3.0,12.0,96,0.09,,,0.12,WUHU216DAVISVP2,2013-06-01 09:11:00,
2013-06-01 05:16:00,63.4,62.5,29.73,West,262,5.0,12.0,97,0.11,,,0.14,WUHU216DAVISVP2,2013-06-01 09:16:00,
2013-06-01 05:21:00,63.3,62.4,29.74,WSW,248,3.0,11.0,97,0.13,,,0.16,WUHU216DAVISVP2,2013-06-01 09:21:00,
2013-06-01 05:26:00,63.3,62.4,29.74,SW,229,6.0,11.0,97,0.15,,,0.18,WUHU216DAVISVP2,2013-06-01 09:26:00,
2013-06-01 05:31:00,63.3,62.4,29.73,SW,235,3.0,10.0,97,0.16,,,0.19,WUHU216DAVISVP2,2013-06-01 09:31:00,
2013-06-01 05:36:00,63.3,62.4,29.73,West,278,5.0,9.0,97,0.16,,,0.20,WUHU216DAVISVP2,2013-06-01 09:36:00,
2013-06-01 05:41:00,63.4,62.5,29.73,SW,222,2.0,9.0,97,0.16,,,0.20,WUHU216DAVISVP2,2013-06-01 09:41:00,
2013-06-01 05:46:00,63.4,62.5,29.73,SW,231,2.0,9.0,97,0.16,,,0.20,WUHU216DAVISVP2,2013-06-01 09:46:00,
2013-06-01 05:51:00,63.4,62.5,29.72,South,190,1.0,8.0,97,0.15,,,0.21,WUHU216DAVISVP2,2013-06-01 09:51:00,
2013-06-01 05:56:00,63.3,62.7,29.72,South,170,2.0,8.0,98,0.14,,,0.21,WUHU216DAVISVP2,2013-06-01 09:56:00,
2013-06-01 06:01:00,63.3,62.7,29.71,ESE,107,1.0,8.0,98,0.12,,,0.21,WUHU216DAVISVP2,2013-06-01 10:01:00,
2013-06-01 06:06:00,63.2,62.6,29.69,ESE,110,1.0,6.0,98,0.10,,,0.21,WUHU216DAVISVP2,2013-06-01 10:06:00,
2013-06-01 06:11:00,63.2,62.6,29.69,SSE,152,1.0,6.0,98,0.09,,,0.21,WUHU216DAVISVP2,2013-06-01 10:11:00,
2013-06-01 06:16:00,63.1,62.5,29.69,SSE,149,1.0,4.0,98,0.07,,,0.21,WUHU216DAVISVP2,2013-06-01 10:16:00,
2013-06-01 06:21:00,63.1,62.5,29.69,SSW,195,2.0,4.0,98,0.05,,,0.21,WUHU216DAVISVP2,2013-06-01 10:21:00,
2013-06-01 06:26:00,63.0,62.4,29.68,South,177,0.0,4.0,98,0.03,,,0.21,WUHU216DAVISVP2,2013-06-01 10:26:00,
2013-06-01 06:31:00,63.0,62.4,29.67,ESE,120,3.0,5.0,98,0.02,,,0.21,WUHU216DAVISVP2,2013-06-01 10:31:00,
2013-06-01 06:36:00,62.9,62.3,29.67,SW,236,2.0,5.0,98,0.01,,,0.21,WUHU216DAVISVP2,2013-06-01 10:36:00,
2013-06-01 06:41:00,62.9,62.3,29.70,WSW,240,5.0,6.0,98,0.01,,,0.21,WUHU216DAVISVP2,2013-06-01 10:41:00,
2013-06-01 06:46:00,63.0,62.4,29.71,WSW,251,6.0,7.0,98,0.01,,,0.21,WUHU216DAVISVP2,2013-06-01 10:46:00,
2013-06-01 06:51:00,63.0,62.4,29.71,WSW,250,3.0,7.0,98,0.00,,,0.21,WUHU216DAVISVP2,2013-06-01 10:51:00,
2013-06-01 06:56:00,63.1,62.5,29.71,SSW,201,2.0,7.0,98,0.00,,,0.21,WUHU216DAVISVP2,2013-06-01 10:56:00,
2013-06-01 07:01:00,63.1,62.5,29.70,South,176,6.0,7.0,98,0.00,,,0.21,WUHU216DAVISVP2,2013-06-01 11:01:00,
2013-06-01 07:06:00,63.2,62.6,29.70,SW,219,2.0,8.0,98,0.00,,,0.21,WUHU216DAVISVP2,2013-06-01 11:06:00,
2013-06-01 07:11:00,63.2,62.6,29.71,South,177,5.0,8.0,98,0.00,,,0.21,WUHU216DAVISVP2,2013-06-01 11:11:00,
2013-06-01 07:16:00,63.2,62.6,29.71,West,274,3.0,8.0,98,0.00,,,0.21,WUHU216DAVISVP2,2013-06-01 11:16:00,
2013-06-01 07:21:00,63.3,62.7,29.71,WSW,252,3.0,8.0,98,0.00,,,0.21,WUHU216DAVISVP2,2013-06-01 11:21:00,
2013-06-01 07:26:00,63.3,62.7,29.71,WSW,243,4.0,8.0,98,0.00,,,0.21,WUHU216DAVISVP2,2013-06-01 11:26:00,
2013-06-01 07:31:00,63.3,62.7,29.70,West,260,2.0,8.0,98,0.00,,,0.21,WUHU216DAVISVP2,2013-06-01 11:31:00,
2013-06-01 07:36:00,63.3,62.7,29.70,South,173,3.0,8.0,98,0.00,,,0.21,WUHU216DAVISVP2,2013-06-01 11:36:00,
2013-06-01 07:41:00,63.3,62.4,29.70,West,259,2.0,8.0,97,0.00,,,0.21,WUHU216DAVISVP2,2013-06-01 11:41:00,
2013-06-01 07:46:00,63.3,62.4,29.70,WSW,253,1.0,8.0,97,0.00,,,0.21,WUHU216DAVISVP2,2013-06-01 11:46:00,
2013-06-01 07:51:00,63.6,62.7,29.70,SSW,204,4.0,7.0,97,0.00,,,0.21,WUHU216DAVISVP2,2013-06-01 11:51:00,
2013-06-01 07:56:00,63.9,63.0,29.69,SW,222,2.0,9.0,97,0.00,,,0.21,WUHU216DAVISVP2,2013-06-01 11:56:00,
2013-06-01 08:01:00,64.1,62.9,29.69,SW,231,4.0,9.0,96,0.00,,,0.21,WUHU216DAVISVP2,2013-06-01 12:01:00,
2013-06-01 08:06:00,64.2,63.0,29.69,WSW,250,3.0,9.0,96,0.00,,,0.21,WUHU216DAVISVP2,2013-06-01 12:06:00,
2013-06-01 08:11:00,64.3,63.1,29.69,SW,218,0.0,9.0,96,0.00,,,0.21,WUHU216DAVISVP2,2013-06-01 12:11:00,
2013-06-01 08:16:00,64.5,63.3,29.68,SSW,203,3.0,10.0,96,0.00,,,0.21,WUHU216DAVISVP2,2013-06-01 12:16:00,
2013-06-01 08:21:00,64.6,63.4,29.68,SSW,213,3.0,10.0,96,0.00,,,0.21,WUHU216DAVISVP2,2013-06-01 12:21:00,
2013-06-01 08:26:00,64.8,63.6,29.68,SW,217,1.0,10.0,96,0.00,,,0.21,WUHU216DAVISVP2,2013-06-01 12:26:00,
2013-06-01 08:31:00,65.0,63.8,29.67,SW,219,5.0,10.0,96,0.00,,,0.21,WUHU216DAVISVP2,2013-06-01 12:31:00,
2013-06-01 08:36:00,65.2,64.0,29.67,WSW,245,3.0,10.0,96,0.00,,,0.21,WUHU216DAVISVP2,2013-06-01 12:36:00,
2013-06-01 08:41:00,65.3,63.8,29.67,West,269,4.0,10.0,95,0.00,,,0.21,WUHU216DAVISVP2,2013-06-01 12:41:00,
2013-06-01 08:46:00,65.4,63.9,29.67,SW,222,7.0,17.0,95,0.00,,,0.21,WUHU216DAVISVP2,2013-06-01 12:46:00,
2013-06-01 08:51:00,65.6,64.1,29.66,SW,233,2.0,18.0,95,0.00,,,0.21,WUHU216DAVISVP2,2013-06-01 12:51:00,
2013-06-01 08:56:00,65.9,64.4,29.66,SSE,159,2.0,18.0,95,0.00,,,0.21,WUHU216DAVISVP2,2013-06-01 12:56:00,
2013-06-01 09:01:00,66.3,64.8,29.66,ENE,71,1.0,18.0,95,0.00,,,0.21,WUHU216DAVISVP2,2013-06-01 13:01:00,
2013-06-01 09:06:00,66.8,65.0,29.66,SW,220,5.0,11.0,94,0.00,,,0.21,WUHU216DAVISVP2,2013-06-01 13:06:00,
2013-06-01 09:11:00,67.1,65.0,29.66,SW,215,7.0,12.0,93,0.00,,,0.21,WUHU216DAVISVP2,2013-06-01 13:11:00,
2013-06-01 09:16:00,67.3,65.2,29.66,SE,143,4.0,12.0,93,0.00,,,0.21,WUHU216DAVISVP2,2013-06-01 13:16:00,
2013-06-01 09:21:00,67.8,65.7,29.66,South,191,2.0,12.0,93,0.00,,,0.21,WUHU216DAVISVP2,2013-06-01 13:21:00,
2013-06-01 09:26:00,68.1,65.7,29.66,South,188,2.0,12.0,92,0.00,,,0.21,WUHU216DAVISVP2,2013-06-01 13:26:00,
2013-06-01 09:31:00,68.4,66.0,29.66,SSW,197,4.0,14.0,92,0.00,,,0.21,WUHU216DAVISVP2,2013-06-01 13:31:00,
2013-06-01 09:36:00,68.8,66.0,29.66,SSW,211,3.0,14.0,91,0.00,,,0.21,WUHU216DAVISVP2,2013-06-01 13:36:00,
2013-06-01 09:41:00,69.2,66.4,29.66,SSW,197,1.0,16.0,91,0.00,,,0.21,WUHU216DAVISVP2,2013-06-01 13:41:00,
2013-06-01 09:46:00,69.1,66.0,29.66,SSE,160,6.0,16.0,90,0.00,,,0.21,WUHU216DAVISVP2,2013-06-01 13:46:00,
2013-06-01 09:51:00,68.7,65.9,29.66,SSW,204,2.0,16.0,91,0.00,,,0.21,WUHU216DAVISVP2,2013-06-01 13:51:00,
2013-06-01 09:56:00,68.6,65.8,29.66,South,180,2.0,16.0,91,0.00,,,0.21,WUHU216DAVISVP2,2013-06-01 13:56:00,
2013-06-01 10:01:00,68.5,65.7,29.66,SW,219,4.0,16.0,91,0.00,,,0.21,WUHU216DAVISVP2,2013-06-01 14:01:00,
2013-06-01 10:06:00,68.5,65.7,29.66,SW,217,4.0,12.0,91,0.00,,,0.21,WUHU216DAVISVP2,2013-06-01 14:06:00,
2013-06-01 10:11:00,68.3,65.9,29.66,WSW,242,10.0,12.0,92,0.00,,,0.21,WUHU216DAVISVP2,2013-06-01 14:11:00,
2013-06-01 10:16:00,68.3,65.6,29.67,West,259,3.0,10.0,91,0.00,,,0.21,WUHU216DAVISVP2,2013-06-01 14:16:00,
2013-06-01 10:21:00,68.3,65.9,29.67,WSW,245,3.0,10.0,92,0.00,,,0.21,WUHU216DAVISVP2,2013-06-01 14:21:00,
2013-06-01 10:26:00,68.4,65.6,29.67,West,266,2.0,10.0,91,0.00,,,0.21,WUHU216DAVISVP2,2013-06-01 14:26:00,
2013-06-01 10:31:00,68.5,65.4,29.67,SW,234,6.0,7.0,90,0.00,,,0.21,WUHU216DAVISVP2,2013-06-01 14:31:00,
2013-06-01 10:36:00,68.5,65.4,29.67,South,173,4.0,9.0,90,0.00,,,0.21,WUHU216DAVISVP2,2013-06-01 14:36:00,
2013-06-01 10:41:00,68.9,65.2,29.67,SW,226,4.0,9.0,88,0.00,,,0.21,WUHU216DAVISVP2,2013-06-01 14:41:00,
2013-06-01 10:46:00,69.5,65.8,29.67,SSW,194,6.0,11.0,88,0.00,,,0.21,WUHU216DAVISVP2,2013-06-01 14:46:00,
2013-06-01 10:51:00,70.1,65.7,29.67,SW,229,6.0,11.0,86,0.00,,,0.21,WUHU216DAVISVP2,2013-06-01 14:51:00,
2013-06-01 10:56:00,70.4,65.4,29.67,SSW,209,6.0,12.0,84,0.00,,,0.21,WUHU216DAVISVP2,2013-06-01 14:56:00,
2013-06-01 11:01:00,70.9,65.9,29.67,West,260,8.0,12.0,84,0.00,,,0.21,WUHU216DAVISVP2,2013-06-01 15:01:00,
2013-06-01 11:06:00,70.9,65.5,29.67,West,265,3.0,12.0,83,0.00,,,0.21,WUHU216DAVISVP2,2013-06-01 15:06:00,
2013-06-01 11:11:00,71.0,65.3,29.67,West,269,4.0,12.0,82,0.00,,,0.21,WUHU216DAVISVP2,2013-06-01 15:11:00,
2013-06-01 11:16:00,71.4,65.7,29.68,West,279,6.0,10.0,82,0.00,,,0.21,WUHU216DAVISVP2,2013-06-01 15:16:00,
2013-06-01 11:21:00,71.6,65.9,29.68,West,274,3.0,10.0,82,0.00,,,0.21,WUHU216DAVISVP2,2013-06-01 15:21:00,
2013-06-01 11:26:00,72.3,66.2,29.68,West,269,7.0,10.0,81,0.00,,,0.21,WUHU216DAVISVP2,2013-06-01 15:26:00,
2013-06-01 11:31:00,72.7,66.3,29.69,WSW,255,5.0,12.0,80,0.00,,,0.21,WUHU216DAVISVP2,2013-06-01 15:31:00,
2013-06-01 11:36:00,72.9,65.8,29.69,WSW,249,7.0,12.0,78,0.00,,,0.21,WUHU216DAVISVP2,2013-06-01 15:36:00,
2013-06-01 11:41:00,73.2,66.4,29.69,SSW,212,2.0,11.0,79,0.00,,,0.21,WUHU216DAVISVP2,2013-06-01 15:41:00,
2013-06-01 11:46:00,73.5,66.0,29.69,West,274,4.0,11.0,77,0.00,,,0.21,WUHU216DAVISVP2,2013-06-01 15:46:00,
2013-06-01 11:51:00,73.5,65.6,29.69,West,260,4.0,10.0,76,0.00,,,0.21,WUHU216DAVISVP2,2013-06-01 15:51:00,
2013-06-01 11:56:00,73.8,66.3,29.69,West,262,2.0,10.0,77,0.00,,,0.21,WUHU216DAVISVP2,2013-06-01 15:56:00,
2013-06-01 12:01:00,74.5,66.2,29.69,West,266,4.0,10.0,75,0.00,,,0.21,WUHU216DAVISVP2,2013-06-01 16:01:00,
2013-06-01 12:06:00,75.1,65.9,29.69,WNW,294,2.0,11.0,73,0.00,,,0.21,WUHU216DAVISVP2,2013-06-01 16:06:00,
2013-06-01 12:11:00,75.4,65.9,29.69,SW,229,7.0,11.0,72,0.00,,,0.21,WUHU216DAVISVP2,2013-06-01 16:11:00,
2013-06-01 12:16:00,75.6,66.1,29.69,SW,225,2.0,11.0,72,0.00,,,0.21,WUHU216DAVISVP2,2013-06-01 16:16:00,
2013-06-01 12:21:00,76.1,65.8,29.69,West,264,4.0,11.0,70,0.00,,,0.21,WUHU216DAVISVP2,2013-06-01 16:21:00,
2013-06-01 12:26:00,76.1,65.8,29.69,WSW,248,4.0,10.0,70,0.00,,,0.21,WUHU216DAVISVP2,2013-06-01 16:26:00,
2013-06-01 12:31:00,76.3,65.6,29.69,SW,218,6.0,10.0,69,0.00,,,0.21,WUHU216DAVISVP2,2013-06-01 16:31:00,
2013-06-01 12:36:00,76.6,66.3,29.69,WSW,247,3.0,10.0,70,0.00,,,0.21,WUHU216DAVISVP2,2013-06-01 16:36:00,
2013-06-01 12:41:00,76.9,65.8,29.69,SW,222,3.0,11.0,68,0.00,,,0.21,WUHU216DAVISVP2,2013-06-01 16:41:00,
2013-06-01 12:46:00,77.4,66.2,29.69,SW,233,5.0,11.0,68,0.00,,,0.21,WUHU216DAVISVP2,2013-06-01 16:46:00,
2013-06-01 12:51:00,77.2,66.0,29.68,West,260,3.0,11.0,68,0.00,,,0.21,WUHU216DAVISVP2,2013-06-01 16:51:00,
2013-06-01 12:56:00,77.5,66.1,29.68,WSW,245,2.0,11.0,68,0.00,,,0.21,WUHU216DAVISVP2,2013-06-01 16:56:00,
2013-06-01 13:01:00,77.7,65.9,29.68,West,271,3.0,11.0,67,0.00,,,0.21,WUHU216DAVISVP2,2013-06-01 17:01:00,
2013-06-01 13:06:00,77.7,66.3,29.68,West,280,4.0,9.0,68,0.00,,,0.21,WUHU216DAVISVP2,2013-06-01 17:06:00,
2013-06-01 13:11:00,77.9,66.3,29.68,SW,215,3.0,10.0,67,0.00,,,0.21,WUHU216DAVISVP2,2013-06-01 17:11:00,
2013-06-01 13:16:00,77.9,65.9,29.68,South,188,2.0,10.0,66,0.00,,,0.21,WUHU216DAVISVP2,2013-06-01 17:16:00,
2013-06-01 13:21:00,77.9,65.4,29.68,WSW,256,5.0,11.0,65,0.00,,,0.21,WUHU216DAVISVP2,2013-06-01 17:21:00,
2013-06-01 13:26:00,77.7,65.2,29.68,SW,219,3.0,11.0,65,0.00,,,0.21,WUHU216DAVISVP2,2013-06-01 17:26:00,
2013-06-01 13:31:00,77.6,65.1,29.68,West,269,5.0,11.0,65,0.00,,,0.21,WUHU216DAVISVP2,2013-06-01 17:31:00,
2013-06-01 13:36:00,77.6,64.7,29.67,SW,233,2.0,13.0,64,0.00,,,0.21,WUHU216DAVISVP2,2013-06-01 17:36:00,
2013-06-01 13:41:00,77.6,64.7,29.67,WSW,245,6.0,13.0,64,0.00,,,0.21,WUHU216DAVISVP2,2013-06-01 17:41:00,
2013-06-01 13:46:00,77.9,65.0,29.67,SW,229,8.0,13.0,64,0.00,,,0.21,WUHU216DAVISVP2,2013-06-01 17:46:00,
2013-06-01 13:51:00,78.2,64.8,29.67,West,262,6.0,11.0,63,0.00,,,0.21,WUHU216DAVISVP2,2013-06-01 17:51:00,
2013-06-01 13:56:00,78.2,64.8,29.67,SSW,204,3.0,11.0,63,0.00,,,0.21,WUHU216DAVISVP2,2013-06-01 17:56:00,
2013-06-01 14:01:00,77.9,63.8,29.67,WSW,257,5.0,11.0,62,0.00,,,0.21,WUHU216DAVISVP2,2013-06-01 18:01:00,
2013-06-01 14:06:00,77.8,64.4,29.67,West,279,5.0,11.0,63,0.00,,,0.21,WUHU216DAVISVP2,2013-06-01 18:06:00,
2013-06-01 14:11:00,77.6,64.0,29.68,West,264,10.0,12.0,63,0.00,,,0.21,WUHU216DAVISVP2,2013-06-01 18:11:00,
2013-06-01 14:16:00,77.0,63.4,29.68,SW,229,12.0,12.0,63,0.00,,,0.21,WUHU216DAVISVP2,2013-06-01 18:16:00,
2013-06-01 14:21:00,76.7,64.3,29.68,West,259,6.0,12.0,65,0.00,,,0.21,WUHU216DAVISVP2,2013-06-01 18:21:00,
2013-06-01 14:26:00,76.5,64.1,29.68,WSW,252,10.0,12.0,65,0.00,,,0.21,WUHU216DAVISVP2,2013-06-01 18:26:00,
2013-06-01 14:31:00,76.7,64.3,29.68,SW,226,6.0,12.0,65,0.00,,,0.21,WUHU216DAVISVP2,2013-06-01 18:31:00,
2013-06-01 14:36:00,77.0,64.6,29.68,WSW,243,6.0,12.0,65,0.00,,,0.21,WUHU216DAVISVP2,2013-06-01 18:36:00,
2013-06-01 14:41:00,77.2,64.3,29.68,WSW,242,3.0,15.0,64,0.00,,,0.21,WUHU216DAVISVP2,2013-06-01 18:41:00,
2013-06-01 14:46:00,77.1,64.4,29.68,SSW,204,5.0,15.0,65,0.00,,,0.21,WUHU216DAVISVP2,2013-06-01 18:46:00,
2013-06-01 14:51:00,77.3,64.2,29.68,WSW,246,6.0,15.0,64,0.00,,,0.21,WUHU216DAVISVP2,2013-06-01 18:51:00,
2013-06-01 14:56:00,77.9,65.4,29.68,SSW,200,4.0,15.0,65,0.00,,,0.21,WUHU216DAVISVP2,2013-06-01 18:56:00,
2013-06-01 15:01:00,78.4,64.5,29.67,SW,224,5.0,12.0,62,0.00,,,0.21,WUHU216DAVISVP2,2013-06-01 19:01:00,
2013-06-01 15:06:00,78.6,65.6,29.67,WSW,248,3.0,12.0,64,0.00,,,0.21,WUHU216DAVISVP2,2013-06-01 19:06:00,
2013-06-01 15:11:00,78.8,64.9,29.67,SW,224,8.0,12.0,62,0.00,,,0.21,WUHU216DAVISVP2,2013-06-01 19:11:00,
2013-06-01 15:16:00,78.2,63.9,29.67,SSW,200,7.0,12.0,61,0.00,,,0.21,WUHU216DAVISVP2,2013-06-01 19:16:00,
2013-06-01 15:21:00,78.5,64.6,29.67,West,266,3.0,12.0,62,0.00,,,0.21,WUHU216DAVISVP2,2013-06-01 19:21:00,
2013-06-01 15:26:00,78.4,64.1,29.67,WSW,242,4.0,12.0,61,0.00,,,0.21,WUHU216DAVISVP2,2013-06-01 19:26:00,
2013-06-01 15:31:00,78.1,64.3,29.67,West,260,4.0,12.0,62,0.00,,,0.21,WUHU216DAVISVP2,2013-06-01 19:31:00,
2013-06-01 15:36:00,77.7,63.9,29.67,SW,223,5.0,11.0,62,0.00,,,0.21,WUHU216DAVISVP2,2013-06-01 19:36:00,
2013-06-01 15:41:00,77.2,64.3,29.67,WSW,252,3.0,11.0,64,0.00,,,0.21,WUHU216DAVISVP2,2013-06-01 19:41:00,
2013-06-01 15:46:00,77.1,64.2,29.67,WSW,242,4.0,11.0,64,0.00,,,0.21,WUHU216DAVISVP2,2013-06-01 19:46:00,
2013-06-01 15:51:00,76.9,64.0,29.67,West,262,4.0,11.0,64,0.00,,,0.21,WUHU216DAVISVP2,2013-06-01 19:51:00,
2013-06-01 15:56:00,76.7,63.6,29.67,SW,229,5.0,11.0,64,0.00,,,0.21,WUHU216DAVISVP2,2013-06-01 19:56:00,
2013-06-01 16:01:00,76.3,63.7,29.67,WNW,292,4.0,12.0,65,0.00,,,0.21,WUHU216DAVISVP2,2013-06-01 20:01:00,
2013-06-01 16:06:00,76.1,64.3,29.67,WSW,257,3.0,12.0,67,0.00,,,0.21,WUHU216DAVISVP2,2013-06-01 20:06:00,
2013-06-01 16:11:00,76.1,63.9,29.67,WSW,249,5.0,12.0,66,0.00,,,0.21,WUHU216DAVISVP2,2013-06-01 20:11:00,
2013-06-01 16:16:00,76.1,63.9,29.67,South,181,7.0,12.0,66,0.00,,,0.21,WUHU216DAVISVP2,2013-06-01 20:16:00,
2013-06-01 16:21:00,76.2,64.4,29.67,WSW,252,5.0,12.0,67,0.00,,,0.21,WUHU216DAVISVP2,2013-06-01 20:21:00,
2013-06-01 16:27:00,76.2,64.0,29.67,SW,236,4.0,12.0,66,0.00,,,0.21,WUHU216DAVISVP2,2013-06-01 20:27:00,
2013-06-01 16:32:00,76.1,63.9,29.67,SSW,193,5.0,11.0,66,0.00,,,0.21,WUHU216DAVISVP2,2013-06-01 20:32:00,
2013-06-01 16:37:00,75.9,63.3,29.67,West,262,7.0,14.0,65,0.00,,,0.21,WUHU216DAVISVP2,2013-06-01 20:37:00,
2013-06-01 16:42:00,76.0,64.2,29.68,WNW,285,2.0,14.0,67,0.00,,,0.21,WUHU216DAVISVP2,2013-06-01 20:42:00,
2013-06-01 16:47:00,76.3,64.3,29.67,SSW,209,3.0,14.0,66,0.00,,,0.21,WUHU216DAVISVP2,2013-06-01 20:47:00,
2013-06-01 16:51:00,76.5,64.9,29.67,SSW,193,3.0,14.0,67,0.00,,,0.21,WUHU216DAVISVP2,2013-06-01 20:51:00,
2013-06-01 16:57:00,76.5,64.5,29.67,West,271,5.0,12.0,66,0.00,,,0.21,WUHU216DAVISVP2,2013-06-01 20:57:00,
2013-06-01 17:02:00,76.4,64.9,29.67,SW,219,1.0,12.0,67,0.00,,,0.21,WUHU216DAVISVP2,2013-06-01 21:02:00,
2013-06-01 17:07:00,76.1,64.1,29.67,SW,214,7.0,12.0,66,0.00,,,0.21,WUHU216DAVISVP2,2013-06-01 21:07:00,
2013-06-01 17:12:00,75.9,64.8,29.67,WSW,249,6.0,12.0,68,0.00,,,0.21,WUHU216DAVISVP2,2013-06-01 21:12:00,
2013-06-01 17:17:00,75.6,64.5,29.67,SW,236,5.0,11.0,68,0.00,,,0.21,WUHU216DAVISVP2,2013-06-01 21:17:00,
2013-06-01 17:22:00,75.3,64.2,29.67,South,170,6.0,11.0,68,0.00,,,0.21,WUHU216DAVISVP2,2013-06-01 21:22:00,
2013-06-01 17:27:00,75.4,64.3,29.67,WSW,250,5.0,10.0,68,0.00,,,0.21,WUHU216DAVISVP2,2013-06-01 21:27:00,
2013-06-01 17:32:00,75.3,63.8,29.67,SW,226,2.0,12.0,67,0.00,,,0.21,WUHU216DAVISVP2,2013-06-01 21:32:00,
2013-06-01 17:37:00,75.1,63.6,29.67,West,265,4.0,15.0,67,0.00,,,0.21,WUHU216DAVISVP2,2013-06-01 21:37:00,
2013-06-01 17:42:00,74.8,63.7,29.67,SW,217,2.0,15.0,68,0.00,,,0.21,WUHU216DAVISVP2,2013-06-01 21:42:00,
2013-06-01 17:47:00,74.5,63.9,29.67,WSW,246,7.0,15.0,69,0.00,,,0.21,WUHU216DAVISVP2,2013-06-01 21:47:00,
2013-06-01 17:52:00,74.3,63.7,29.67,SW,225,5.0,15.0,69,0.00,,,0.21,WUHU216DAVISVP2,2013-06-01 21:52:00,
2013-06-01 17:57:00,74.1,63.5,29.67,South,180,8.0,13.0,69,0.00,,,0.21,WUHU216DAVISVP2,2013-06-01 21:57:00,
2013-06-01 18:02:00,73.7,63.1,29.67,WSW,257,5.0,13.0,69,0.00,,,0.21,WUHU216DAVISVP2,2013-06-01 22:02:00,
2013-06-01 18:07:00,73.5,63.3,29.67,WSW,243,6.0,11.0,70,0.00,,,0.21,WUHU216DAVISVP2,2013-06-01 22:07:00,
2013-06-01 18:12:00,73.4,63.2,29.67,SW,225,4.0,10.0,70,0.00,,,0.21,WUHU216DAVISVP2,2013-06-01 22:12:00,
2013-06-01 18:17:00,73.3,63.5,29.67,South,172,10.0,10.0,71,0.00,,,0.21,WUHU216DAVISVP2,2013-06-01 22:17:00,
2013-06-01 18:22:00,73.1,63.7,29.66,WSW,257,4.0,13.0,72,0.00,,,0.21,WUHU216DAVISVP2,2013-06-01 22:22:00,
2013-06-01 18:27:00,72.8,63.4,29.66,West,262,4.0,13.0,72,0.00,,,0.21,WUHU216DAVISVP2,2013-06-01 22:27:00,
2013-06-01 18:32:00,72.7,63.7,29.66,West,269,5.0,13.0,73,0.00,,,0.21,WUHU216DAVISVP2,2013-06-01 22:32:00,
2013-06-01 18:37:00,72.5,63.5,29.66,WSW,246,3.0,8.0,73,0.00,,,0.21,WUHU216DAVISVP2,2013-06-01 22:37:00,
2013-06-01 18:42:00,72.3,63.7,29.66,WSW,243,7.0,7.0,74,0.00,,,0.21,WUHU216DAVISVP2,2013-06-01 22:42:00,
2013-06-01 18:47:00,72.1,63.1,29.65,SW,236,2.0,7.0,73,0.00,,,0.21,WUHU216DAVISVP2,2013-06-01 22:47:00,
2013-06-01 18:52:00,72.0,63.0,29.66,West,259,2.0,7.0,73,0.00,,,0.21,WUHU216DAVISVP2,2013-06-01 22:52:00,
2013-06-01 18:57:00,71.9,62.9,29.66,SW,232,2.0,6.0,73,0.00,,,0.21,WUHU216DAVISVP2,2013-06-01 22:57:00,
2013-06-01 19:02:00,71.7,63.1,29.66,WSW,257,3.0,5.0,74,0.00,,,0.21,WUHU216DAVISVP2,2013-06-01 23:02:00,
2013-06-01 19:07:00,71.6,62.9,29.66,West,259,3.0,5.0,74,0.00,,,0.21,WUHU216DAVISVP2,2013-06-01 23:07:00,
2013-06-01 19:12:00,71.4,62.7,29.66,SSW,207,5.0,5.0,74,0.00,,,0.21,WUHU216DAVISVP2,2013-06-01 23:12:00,
2013-06-01 19:17:00,71.3,63.1,29.66,SW,215,2.0,5.0,75,0.00,,,0.21,WUHU216DAVISVP2,2013-06-01 23:17:00,
2013-06-01 19:22:00,71.2,63.0,29.66,SSW,211,3.0,5.0,75,0.00,,,0.21,WUHU216DAVISVP2,2013-06-01 23:22:00,
2013-06-01 19:27:00,71.1,62.9,29.66,West,274,0.0,5.0,75,0.00,,,0.21,WUHU216DAVISVP2,2013-06-01 23:27:00,
2013-06-01 19:32:00,71.0,62.8,29.66,SSW,208,2.0,5.0,75,0.00,,,0.21,WUHU216DAVISVP2,2013-06-01 23:32:00,
2013-06-01 19:37:00,70.9,62.7,29.66,SW,231,2.0,5.0,75,0.00,,,0.21,WUHU216DAVISVP2,2013-06-01 23:37:00,
2013-06-01 19:42:00,70.9,62.7,29.66,West,264,1.0,4.0,75,0.00,,,0.21,WUHU216DAVISVP2,2013-06-01 23:42:00,
2013-06-01 19:47:00,70.8,62.6,29.66,West,277,1.0,4.0,75,0.00,,,0.21,WUHU216DAVISVP2,2013-06-01 23:47:00,
2013-06-01 19:52:00,70.8,62.6,29.65,West,269,1.0,4.0,75,0.00,,,0.21,WUHU216DAVISVP2,2013-06-01 23:52:00,
2013-06-01 19:57:00,70.8,62.6,29.66,West,273,1.0,3.0,75,0.00,,,0.21,WUHU216DAVISVP2,2013-06-01 23:57:00,
2013-06-01 20:02:00,70.7,62.5,29.65,West,262,1.0,3.0,75,0.00,,,0.21,WUHU216DAVISVP2,2013-06-02 00:02:00,
2013-06-01 20:07:00,70.7,62.9,29.65,West,279,0.0,3.0,76,0.00,,,0.21,WUHU216DAVISVP2,2013-06-02 00:07:00,
2013-06-01 20:12:00,70.6,62.8,29.65,SW,218,1.0,3.0,76,0.00,,,0.21,WUHU216DAVISVP2,2013-06-02 00:12:00,
2013-06-01 20:17:00,70.5,62.7,29.65,WSW,258,1.0,3.0,76,0.00,,,0.21,WUHU216DAVISVP2,2013-06-02 00:17:00,
2013-06-01 20:22:00,70.5,63.1,29.65,SSW,199,1.0,3.0,77,0.00,,,0.21,WUHU216DAVISVP2,2013-06-02 00:22:00,
2013-06-01 20:27:00,70.3,62.9,29.65,SSW,213,1.0,3.0,77,0.00,,,0.21,WUHU216DAVISVP2,2013-06-02 00:27:00,
2013-06-01 20:32:00,70.3,63.2,29.65,SSW,212,0.0,3.0,78,0.00,,,0.21,WUHU216DAVISVP2,2013-06-02 00:32:00,
2013-06-01 20:37:00,70.1,63.0,29.65,SSW,212,0.0,3.0,78,0.00,,,0.21,WUHU216DAVISVP2,2013-06-02 00:37:00,
2013-06-01 20:42:00,69.8,63.4,29.65,SSW,213,0.0,3.0,80,0.00,,,0.21,WUHU216DAVISVP2,2013-06-02 00:42:00,
2013-06-01 20:47:00,69.6,63.2,29.65,SSW,212,0.0,1.0,80,0.00,,,0.21,WUHU216DAVISVP2,2013-06-02 00:47:00,
2013-06-01 20:52:00,69.4,63.4,29.65,SSW,213,0.0,1.0,81,0.00,,,0.21,WUHU216DAVISVP2,2013-06-02 00:52:00,
2013-06-01 20:57:00,69.3,62.9,29.64,SW,229,0.0,2.0,80,0.00,,,0.21,WUHU216DAVISVP2,2013-06-02 00:57:00,
2013-06-01 21:02:00,69.3,62.9,29.64,SW,229,0.0,2.0,80,0.00,,,0.21,WUHU216DAVISVP2,2013-06-02 01:02:00,
2013-06-01 21:07:00,69.3,63.3,29.64,SSW,207,0.0,2.0,81,0.00,,,0.21,WUHU216DAVISVP2,2013-06-02 01:07:00,
2013-06-01 21:12:00,69.2,62.8,29.64,SSW,201,0.0,2.0,80,0.00,,,0.21,WUHU216DAVISVP2,2013-06-02 01:12:00,
2013-06-01 21:17:00,69.1,63.1,29.64,SW,215,0.0,2.0,81,0.00,,,0.21,WUHU216DAVISVP2,2013-06-02 01:17:00,
2013-06-01 21:22:00,69.0,63.0,29.64,SW,215,0.0,2.0,81,0.00,,,0.21,WUHU216DAVISVP2,2013-06-02 01:22:00,
2013-06-01 21:27:00,68.9,62.9,29.64,SW,215,0.0,2.0,81,0.00,,,0.21,WUHU216DAVISVP2,2013-06-02 01:27:00,
2013-06-01 21:32:00,68.8,62.8,29.64,SSW,211,0.0,2.0,81,0.00,,,0.21,WUHU216DAVISVP2,2013-06-02 01:32:00,
2013-06-01 21:37:00,68.8,62.8,29.64,SW,224,0.0,2.0,81,0.00,,,0.21,WUHU216DAVISVP2,2013-06-02 01:37:00,
2013-06-01 21:42:00,68.7,62.4,29.64,SSW,200,1.0,3.0,80,0.00,,,0.21,WUHU216DAVISVP2,2013-06-02 01:42:00,
2013-06-01 21:47:00,68.8,62.5,29.63,SSW,205,0.0,3.0,80,0.00,,,0.21,WUHU216DAVISVP2,2013-06-02 01:47:00,
2013-06-01 21:52:00,68.8,62.5,29.63,South,191,0.0,3.0,80,0.00,,,0.21,WUHU216DAVISVP2,2013-06-02 01:52:00,
2013-06-01 21:57:00,68.8,62.5,29.63,SSW,197,0.0,3.0,80,0.00,,,0.21,WUHU216DAVISVP2,2013-06-02 01:57:00,
2013-06-01 22:02:00,68.7,62.4,29.63,SSW,198,0.0,2.0,80,0.00,,,0.21,WUHU216DAVISVP2,2013-06-02 02:02:00,
2013-06-01 22:07:00,68.6,62.6,29.63,SSW,197,0.0,2.0,81,0.00,,,0.21,WUHU216DAVISVP2,2013-06-02 02:07:00,
2013-06-01 22:12:00,68.6,62.3,29.63,SSW,207,0.0,2.0,80,0.00,,,0.21,WUHU216DAVISVP2,2013-06-02 02:12:00,
2013-06-01 22:17:00,68.5,62.5,29.63,SSW,207,0.0,2.0,81,0.00,,,0.21,WUHU216DAVISVP2,2013-06-02 02:17:00,
2013-06-01 22:22:00,68.5,62.5,29.62,SSW,206,0.0,2.0,81,0.00,,,0.21,WUHU216DAVISVP2,2013-06-02 02:22:00,
2013-06-01 22:27:00,68.4,62.4,29.62,SSW,207,0.0,2.0,81,0.00,,,0.21,WUHU216DAVISVP2,2013-06-02 02:27:00,
2013-06-01 22:32:00,68.3,62.3,29.62,SSW,208,0.0,1.0,81,0.00,,,0.21,WUHU216DAVISVP2,2013-06-02 02:32:00,
2013-06-01 22:37:00,68.4,62.4,29.61,South,185,0.0,3.0,81,0.00,,,0.21,WUHU216DAVISVP2,2013-06-02 02:37:00,
2013-06-01 22:42:00,68.4,62.4,29.61,SW,222,0.0,3.0,81,0.00,,,0.21,WUHU216DAVISVP2,2013-06-02 02:42:00,
2013-06-01 22:47:00,68.4,62.4,29.61,SW,220,0.0,3.0,81,0.00,,,0.21,WUHU216DAVISVP2,2013-06-02 02:47:00,
2013-06-01 22:52:00,68.4,62.4,29.60,South,181,1.0,3.0,81,0.00,,,0.21,WUHU216DAVISVP2,2013-06-02 02:52:00,
2013-06-01 22:57:00,68.3,62.3,29.60,SW,222,1.0,3.0,81,0.00,,,0.21,WUHU216DAVISVP2,2013-06-02 02:57:00,
2013-06-01 23:02:00,68.2,62.5,29.60,SW,226,1.0,3.0,82,0.00,,,0.21,WUHU216DAVISVP2,2013-06-02 03:02:00,
2013-06-01 23:07:00,68.1,62.5,29.60,SW,215,0.0,3.0,82,0.00,,,0.21,WUHU216DAVISVP2,2013-06-02 03:07:00,
2013-06-01 23:12:00,67.9,62.3,29.60,SSW,204,0.0,3.0,82,0.00,,,0.21,WUHU216DAVISVP2,2013-06-02 03:12:00,
2013-06-01 23:17:00,67.7,62.4,29.60,SW,221,0.0,3.0,83,0.00,,,0.21,WUHU216DAVISVP2,2013-06-02 03:17:00,
2013-06-01 23:22:00,67.7,62.4,29.60,SSW,195,2.0,4.0,83,0.00,,,0.21,WUHU216DAVISVP2,2013-06-02 03:22:00,
2013-06-01 23:27:00,67.7,62.4,29.59,SSW,201,0.0,4.0,83,0.00,,,0.21,WUHU216DAVISVP2,2013-06-02 03:27:00,
2013-06-01 23:32:00,67.5,62.5,29.59,SSW,207,1.0,4.0,84,0.00,,,0.21,WUHU216DAVISVP2,2013-06-02 03:32:00,
2013-06-01 23:37:00,67.3,62.3,29.59,SW,215,1.0,4.0,84,0.00,,,0.21,WUHU216DAVISVP2,2013-06-02 03:37:00,
2013-06-01 23:42:00,67.1,62.5,29.59,WSW,253,1.0,3.0,85,0.00,,,0.21,WUHU216DAVISVP2,2013-06-02 03:42:00,
2013-06-01 23:47:00,67.0,62.4,29.59,SW,229,3.0,4.0,85,0.00,,,0.21,WUHU216DAVISVP2,2013-06-02 03:47:00,
2013-06-01 23:52:00,66.9,62.3,29.59,SW,219,2.0,4.0,85,0.00,,,0.21,WUHU216DAVISVP2,2013-06-02 03:52:00,
2013-06-01 23:57:00,66.7,62.4,29.59,SSW,201,1.0,4.0,86,0.00,,,0.21,WUHU216DAVISVP2,2013-06-02 03:57:00,